Vorticity
8 7 6 5 5 3 4 6 6 3 3 2 5 2 3 4 4 4 8 3 7 7 6 5 5 4 4 3 3 4 5 4 3 3 2 1 2 1 1 3 2 3 3 4 5 6 6 7 5
5 3 3 4 7 6 5 8 5 5 6 3 2 3 4 1 2 5 6 3 5 8 6 5 6 6 5 4 3 3 5 5 3 4 2 2 2 2 2 2 2 3 3 4 5 7 8 5 5
6 5 5 3 3 5 10 16 5 6 4 3 1 3 1 2 3 1 7 1 5 5 7 6 7 7 7 6 5 3 3 4 4 3 4 3 2 2 3 3 3 2 2 5 3 3 5 6 7
3 3 2 9 7 6 5 8 14 1 1 4 3 2 5 2 3 -1 4 5 3 3 4 7 6 7 9 7 6 5 4 3 4 3 3 3 3 2 2 2 4 3 2 3 3 3 4 4 4
9 7 6 5 2 5 5 5 8 11 2 4 4 2 2 3 1 -0 1 4 3 2 3 3 5 6 8 10 8 7 5 5 4 3 3 3 2 2 2 2 2 3 3 3 2 3 4 3 4
4 4 6 7 6 6 6 7 4 7 8 1 3 4 2 2 5 2 -1 3 2 2 2 3 4 3 4 6 10 9 9 6 5 4 3 3 3 2 2 3 3 3 3 3 4 4 2 4 4
6 5 2 5 5 10 8 5 7 5 8 10 3 3 3 3 1 4 1 1 3 2 2 1 3 3 2 5 6 9 10 9 7 6 5 4 3 3 3 3 3 3 3 3 4 4 3 4 4
10 9 8 7 4 4 6 11 5 6 6 8 3 4 4 3 5 3 3 1 2 3 1 2 3 3 3 4 4 5 8 11 9 7 6 5 4 4 3 3 3 3 4 3 3 4 6 5 4
5 7 7 8 8 7 5 4 9 7 9 5 2 4 6 6 3 2 3 2 -0 1 2 3 1 3 3 3 3 4 5 5 10 10 7 6 5 4 4 4 4 5 5 4 5 5 5 6 5
13 13 11 9 7 5 7 9 4 11 7 6 3 3 3 5 9 2 5 4 4 3 3 3 2 2 2 3 3 2 3 5 5 11 8 8 7 6 6 6 7 7 7 7 7 7 6 6 5
18 20 16 14 12 9 7 6 8 5 8 7 6 2 2 -0 11 7 -1 6 3 2 3 3 1 2 2 2 2 1 1 2 2 5 10 8 7 6 6 6 6 6 5 4 4 4 3 3 4
16 16 19 18 21 21 16 11 5 11 12 13 7 5 2 1 0 13 3 1 7 4 4 3 2 2 3 4 1 2 3 1 -6 2 7 7 7 7 7 7 6 6 6 7 7 7 8 8 9
22 22 22 24 23 21 21 16 17 1 17 15 15 7 4 2 2 1 15 -1 3 4 3 3 3 4 3 3 1 1 2 2 0 5 5 5 5 6 7 8 9 9 8 8 7 8 8 9 9
25 22 23 21 18 22 28 28 29 25 32 14 18 15 6 7 3 2 3 13 -2 5 5 4 2 4 2 1 2 5 5 3 6 4 1 5 3 2 1 3 4 5 6 6 6 6 6 7 8
19 17 11 17 17 15 15 17 28 18 24 24 5 13 13 4 2 8 2 4 12 -2 5 4 4 3 2 2 2 4 2 4 -1 8 -11 5 1 2 1 1 1 3 4 5 5 5 5 8 7
13 14 16 5 8 18 21 22 18 22 21 27 22 4 8 13 9 1 10 6 14 5 1 5 4 4 3 2 2 3 2 3 6 -2 5 17 1 2 1 2 2 1 2 3 3 4 4 5 6
15 -4 15 5 11 6 8 23 18 13 22 20 41 20 2 8 7 6 4 11 9 11 -0 9 3 5 5 4 4 3 3 2 2 6 3 4 1 2 3 2 3 3 2 1 2 5 6 4 6
14 17 9 13 8 18 14 10 12 20 13 20 18 37 25 6 6 6 9 3 12 12 10 2 7 1 5 2 2 2 3 4 3 5 2 2 3 4 2 2 3 3 -1 2 2 4 4 6 7
10 17 13 10 7 9 9 39 7 9 19 12 12 24 29 24 18 10 4 9 4 8 19 7 3 4 2 6 3 6 5 4 1 0 3 1 -2 3 4 5 4 1 -0 2 1 0 8 8 9
4 7 16 22 21 23 6 7 27 17 -0 15 16 12 21 29 24 17 9 8 13 -4 12 14 3 11 1 6 4 1 -0 3 3 1 1 -1 8 4 2 4 1 -1 1 1 1 2 16 4 8
3 7 2 13 24 23 32 33 2 23 22 13 20 14 15 18 25 24 29 10 14 9 -2 14 7 9 2 6 3 3 10 -4 2 -3 2 4 1 -5 1 1 -1 1 1 1 -4 3 13 6 7
17 -4 18 3 19 17 5 55 43 17 25 19 9 14 15 19 13 23 23 21 6 14 5 2 12 2 11 -10 6 15 5 6 -2 6 6 4 9 2 4 7 2 5 4 0 2 37 1 8 8
14 16 7 30 6 16 19 13 7 30 33 29 20 13 14 14 23 16 22 26 14 12 15 7 3 9 -6 7 -5 4 -6 -7 8 7 10 11 -2 -2 2 -0 1 3 12 4 20 5 5 8 8
16 18 11 11 8 30 15 14 16 18 14 16 14 16 15 13 16 14 13 28 20 12 13 11 8 -2 9 8 14 1 -0 12 13 -1 -1 -4 1 3 -0 3 6 4 15 13 14 6 6 8 8
14 13 9 14 9 3 9 15 13 14 23 11 13 12 14 14 13 14 15 21 26 20 12 13 9 13 -1 19 9 3 25 -2 -15 -3 -5 -1 0 -5 2 6 11 22 13 16 4 7 8 8 6
31 7 16 10 15 13 8 4 3 6 16 23 5 13 16 10 11 16 17 27 29 24 19 18 11 9 16 -52 16 5 -3 41 33 18 18 14 6 1 17 55 3 10 6 4 7 7 7 6 6
7 7 6 11 15 20 8 1 6 8 6 12 19 22 12 15 10 14 19 22 23 17 24 9 16 11 10 11 -5 0 14 59 -21 19 56 13 54 23 4 2 6 5 5 9 8 6 6 6 5
12 14 15 15 2 2 20 12 9 1 8 5 8 20 22 10 7 10 9 21 19 17 17 17 22 10 9 9 9 1 -5 -22 21 -12 15 3 11 7 5 6 3 6 6 8 7 6 6 4 3
14 4 7 28 22 17 16 -2 11 8 7 2 5 11 21 11 10 8 9 16 20 19 19 17 20 12 10 9 6 8 12 20 -36 -17 1 -18 6 1 1 -1 5 8 6 7 6 6 3 3 3
11 12 17 9 10 24 12 5 25 8 11 -0 19 16 8 25 6 3 6 -3 30 16 15 15 15 11 9 11 8 7 7 11 15 5 49 45 4 3 0 5 10 7 6 6 5 3 4 3 4
Height
5838 5839 5838 5840 5843 5838 5848 5855 5856 5855 5857 5856 5858 5859 5861 5862 5864 5866 5864 5865 5866 5866 5867 5867 5867 5868 5869 5869 5870 5870 5871 5871 5872 5872 5872 5872 5872 5871 5871 5870 5869 5868 5868 5867 5866 5866 5865 5864 5863
5832 5833 5833 5832 5832 5832 5843 5852 5853 5852 5849 5851 5852 5854 5857 5859 5860 5861 5862 5863 5864 5864 5865 5865 5866 5866 5867 5868 5869 5869 5870 5870 5871 5871 5871 5871 5871 5871 5870 5870 5869 5868 5867 5866 5866 5865 5864 5863 5863
5825 5826 5827 5824 5824 5827 5840 5846 5847 5845 5842 5846 5847 5849 5851 5855 5856 5859 5859 5860 5861 5862 5863 5863 5863 5864 5865 5866 5867 5868 5869 5869 5870 5870 5870 5870 5870 5870 5869 5869 5868 5868 5867 5866 5865 5864 5863 5862 5861
5817 5819 5819 5817 5818 5824 5831 5837 5836 5835 5834 5836 5840 5840 5846 5849 5852 5853 5856 5857 5859 5860 5860 5861 5861 5862 5863 5864 5865 5866 5867 5868 5868 5869 5869 5869 5868 5868 5868 5867 5867 5866 5866 5865 5863 5862 5861 5860 5859
5808 5809 5809 5810 5811 5815 5821 5826 5826 5826 5826 5827 5830 5832 5838 5842 5845 5848 5851 5852 5855 5856 5857 5859 5858 5859 5860 5861 5862 5863 5864 5865 5866 5867 5867 5867 5867 5867 5866 5866 5865 5865 5864 5863 5862 5861 5860 5858 5857
5799 5800 5801 5801 5802 5804 5809 5813 5815 5815 5817 5820 5819 5825 5830 5835 5839 5843 5845 5847 5850 5853 5854 5856 5856 5857 5858 5858 5859 5860 5862 5863 5863 5864 5865 5865 5865 5864 5864 5864 5863 5862 5862 5861 5860 5859 5858 5856 5855
5788 5789 5791 5791 5792 5793 5797 5797 5804 5805 5809 5813 5809 5816 5823 5829 5832 5836 5839 5841 5845 5848 5850 5852 5853 5854 5855 5856 5857 5857 5858 5859 5860 5861 5862 5862 5862 5862 5862 5861 5861 5860 5859 5859 5858 5857 5855 5854 5853
5777 5778 5779 5779 5780 5783 5783 5786 5790 5796 5800 5801 5800 5803 5814 5821 5825 5829 5832 5835 5838 5842 5845 5848 5849 5851 5852 5853 5854 5854 5855 5856 5857 5858 5859 5859 5859 5859 5859 5858 5858 5857 5857 5856 5855 5854 5853 5852 5850
5765 5767 5766 5766 5766 5768 5770 5771 5776 5783 5786 5789 5790 5794 5802 5810 5814 5818 5825 5829 5832 5836 5838 5841 5845 5846 5848 5849 5850 5851 5852 5853 5854 5855 5855 5856 5856 5856 5856 5855 5855 5855 5854 5853 5852 5851 5849 5848 5847
5751 5751 5750 5751 5751 5753 5755 5759 5761 5768 5772 5779 5783 5784 5788 5796 5805 5810 5815 5821 5825 5828 5832 5835 5839 5841 5843 5845 5846 5848 5849 5850 5851 5852 5852 5852 5852 5852 5852 5851 5851 5851 5850 5849 5848 5847 5846 5844 5843
5739 5736 5733 5734 5734 5735 5739 5742 5747 5750 5758 5765 5771 5774 5775 5781 5791 5798 5804 5811 5815 5819 5824 5828 5831 5835 5838 5840 5842 5844 5845 5846 5847 5849 5849 5848 5848 5848 5848 5847 5847 5847 5846 5845 5844 5843 5842 5840 5838
5723 5719 5717 5716 5716 5717 5718 5724 5731 5736 5742 5747 5754 5762 5763 5768 5777 5786 5794 5800 5807 5811 5816 5820 5825 5829 5832 5835 5837 5839 5841 5842 5844 5845 5846 5845 5844 5844 5844 5844 5843 5843 5842 5841 5839 5838 5837 5835 5833
5707 5705 5701 5700 5700 5698 5697 5703 5711 5719 5724 5729 5739 5747 5752 5755 5763 5773 5782 5789 5796 5802 5807 5813 5817 5821 5825 5828 5830 5833 5836 5837 5839 5841 5841 5841 5841 5840 5840 5839 5839 5838 5837 5836 5835 5833 5832 5830 5828
5697 5693 5691 5687 5686 5686 5683 5688 5692 5703 5711 5711 5719 5730 5737 5743 5748 5758 5770 5780 5787 5793 5799 5805 5809 5814 5818 5821 5824 5827 5829 5831 5832 5835 5836 5836 5836 5836 5836 5835 5834 5833 5832 5831 5830 5828 5826 5825 5823
5689 5688 5683 5678 5678 5676 5673 5682 5681 5687 5687 5695 5699 5710 5720 5728 5734 5744 5755 5767 5775 5782 5789 5796 5800 5806 5811 5814 5817 5820 5823 5825 5827 5828 5830 5832 5832 5831 5831 5831 5830 5829 5828 5826 5825 5823 5821 5819 5817
5683 5681 5679 5672 5671 5669 5667 5675 5672 5671 5673 5680 5685 5691 5702 5710 5721 5729 5740 5751 5762 5770 5779 5784 5791 5796 5802 5806 5810 5813 5816 5819 5820 5821 5824 5826 5826 5827 5827 5826 5825 5824 5823 5821 5820 5818 5816 5814 5811
5678 5676 5672 5670 5663 5662 5660 5664 5661 5658 5663 5670 5678 5680 5686 5696 5705 5716 5727 5739 5749 5758 5766 5774 5782 5786 5792 5797 5801 5806 5809 5812 5814 5815 5818 5820 5820 5821 5821 5821 5820 5819 5817 5816 5814 5812 5810 5807 5804
5675 5670 5666 5662 5658 5653 5651 5655 5654 5652 5655 5661 5664 5669 5674 5683 5695 5704 5713 5725 5734 5743 5753 5762 5770 5776 5782 5787 5793 5798 5801 5805 5807 5809 5811 5812 5814 5815 5815 5815 5814 5812 5811 5810 5807 5805 5803 5800 5797
5670 5665 5660 5655 5649 5647 5643 5645 5645 5644 5645 5650 5654 5659 5663 5669 5681 5691 5699 5711 5720 5732 5740 5749 5759 5767 5773 5779 5785 5789 5791 5794 5799 5802 5803 5805 5806 5808 5808 5808 5807 5806 5804 5803 5801 5798 5795 5793 5790
5665 5660 5654 5648 5641 5636 5635 5638 5634 5633 5636 5637 5643 5647 5654 5658 5663 5675 5688 5696 5709 5721 5731 5739 5747 5755 5763 5770 5773 5776 5781 5786 5789 5793 5796 5797 5798 5799 5801 5801 5800 5798 5797 5795 5793 5790 5787 5784 5782
5660 5655 5648 5642 5636 5630 5626 5626 5626 5621 5623 5629 5634 5641 5645 5651 5654 5662 5674 5685 5697 5711 5720 5730 5737 5745 5752 5757 5761 5768 5774 5778 5781 5784 5786 5789 5790 5792 5792 5792 5791 5789 5788 5787 5784 5782 5779 5775 5772
5657 5651 5646 5639 5633 5628 5621 5618 5613 5614 5617 5624 5629 5634 5638 5643 5647 5652 5662 5671 5684 5700 5710 5718 5727 5735 5742 5746 5753 5760 5763 5767 5770 5775 5779 5780 5781 5782 5783 5783 5782 5780 5780 5778 5775 5772 5770 5767 5763
5654 5649 5643 5638 5632 5627 5622 5619 5614 5613 5615 5619 5623 5627 5632 5636 5641 5645 5652 5663 5674 5683 5697 5708 5716 5724 5732 5738 5744 5750 5754 5756 5760 5764 5767 5770 5772 5773 5773 5773 5772 5772 5771 5768 5766 5763 5762 5758 5754
5651 5646 5642 5636 5632 5626 5622 5619 5615 5613 5614 5617 5620 5623 5627 5630 5634 5637 5643 5652 5660 5672 5683 5694 5703 5715 5724 5731 5736 5741 5746 5750 5754 5756 5759 5762 5763 5764 5764 5763 5763 5762 5761 5757 5756 5753 5751 5748 5744
5649 5645 5640 5636 5631 5627 5623 5619 5617 5615 5614 5615 5616 5619 5622 5625 5629 5633 5638 5645 5653 5662 5673 5683 5693 5706 5715 5724 5728 5733 5738 5741 5746 5748 5751 5752 5753 5752 5752 5753 5750 5752 5751 5749 5746 5744 5741 5738 5734
5648 5643 5638 5632 5629 5626 5623 5620 5618 5614 5613 5614 5616 5617 5618 5621 5625 5630 5633 5638 5646 5653 5663 5672 5684 5695 5707 5704 5713 5725 5730 5735 5737 5740 5740 5741 5743 5742 5741 5743 5742 5741 5740 5740 5738 5734 5730 5727 5723
5648 5642 5637 5631 5628 5624 5622 5620 5617 5615 5613 5613 5614 5616 5617 5618 5621 5625 5629 5633 5638 5646 5655 5665 5674 5684 5695 5704 5711 5718 5723 5723 5730 5729 5722 5728 5730 5731 5732 5734 5732 5733 5732 5731 5728 5723 5719 5715 5712
5646 5640 5634 5630 5625 5620 5619 5617 5616 5614 5613 5612 5612 5613 5615 5617 5618 5622 5625 5628 5633 5640 5648 5656 5667 5676 5686 5695 5704 5710 5714 5713 5719 5723 5722 5726 5721 5722 5723 5725 5723 5724 5723 5720 5717 5712 5709 5704 5700
5645 5638 5633 5628 5623 5619 5615 5614 5613 5612 5611 5610 5610 5610 5612 5613 5617 5618 5622 5624 5628 5635 5643 5651 5661 5670 5678 5688 5695 5701 5706 5710 5708 5714 5712 5713 5716 5718 5719 5719 5717 5715 5713 5710 5706 5702 5697 5692 5688
5643 5637 5631 5626 5622 5617 5612 5611 5608 5608 5607 5607 5608 5608 5609 5611 5615 5617 5619 5622 5625 5630 5638 5647 5656 5665 5673 5681 5687 5694 5699 5704 5707 5710 5709 5708 5710 5710 5712 5712 5708 5705 5704 5701 5695 5690 5686 5682 5674